Year,Month,Day,Hour,Minute,Value (Times are PST for temperature in C)
2017,01,13,00,00,-2.40
2017,01,13,00,01,-2.40
2017,01,13,00,02,-2.40
2017,01,13,00,03,-2.40
2017,01,13,00,04,-2.40
2017,01,13,00,05,-2.40
2017,01,13,00,06,-2.50
2017,01,13,00,07,-2.50
2017,01,13,00,08,-2.50
2017,01,13,00,09,-2.60
2017,01,13,00,10,-2.60
2017,01,13,00,11,-2.60
2017,01,13,00,12,-2.60
2017,01,13,00,13,-2.60
2017,01,13,00,14,-2.70
2017,01,13,00,15,-2.70
2017,01,13,00,16,-2.70
2017,01,13,00,17,-2.80
2017,01,13,00,18,-2.80
2017,01,13,00,19,-2.90
2017,01,13,00,20,-2.90
2017,01,13,00,21,-3.00
2017,01,13,00,22,-3.00
2017,01,13,00,23,-3.10
2017,01,13,00,24,-3.10
2017,01,13,00,25,-3.10
2017,01,13,00,26,-3.20
2017,01,13,00,27,-3.20
2017,01,13,00,28,-3.20
2017,01,13,00,29,-3.20
2017,01,13,00,30,-3.20
2017,01,13,00,31,-3.30
2017,01,13,00,32,-3.30
2017,01,13,00,33,-3.30
2017,01,13,00,34,-3.40
2017,01,13,00,35,-3.40
2017,01,13,00,36,-3.40
2017,01,13,00,37,-3.40
2017,01,13,00,38,-3.40
2017,01,13,00,39,-3.40
2017,01,13,00,40,-3.30
2017,01,13,00,41,-3.30
2017,01,13,00,42,-3.30
2017,01,13,00,43,-3.30
2017,01,13,00,44,-3.30
2017,01,13,00,45,-3.30
2017,01,13,00,46,-3.30
2017,01,13,00,47,-3.30
2017,01,13,00,48,-3.30
2017,01,13,00,49,-3.30
2017,01,13,00,50,-3.30
2017,01,13,00,51,-3.30
2017,01,13,00,52,-3.30
2017,01,13,00,53,-3.30
2017,01,13,00,54,-3.30
2017,01,13,00,55,-3.30
2017,01,13,00,56,-3.30
2017,01,13,00,57,-3.30
2017,01,13,00,58,-3.30
2017,01,13,00,59,-3.30
2017,01,13,01,00,-3.40
2017,01,13,01,01,-3.40
2017,01,13,01,02,-3.40
2017,01,13,01,03,-3.40
2017,01,13,01,04,-3.40
2017,01,13,01,05,-3.50
2017,01,13,01,06,-3.50
2017,01,13,01,07,-3.60
2017,01,13,01,08,-3.60
2017,01,13,01,09,-3.60
2017,01,13,01,10,-3.60
2017,01,13,01,11,-3.60
2017,01,13,01,12,-3.70
2017,01,13,01,13,-3.70
2017,01,13,01,14,-3.70
2017,01,13,01,15,-3.70
2017,01,13,01,16,-3.70
2017,01,13,01,17,-3.70
2017,01,13,01,18,-3.70
2017,01,13,01,19,-3.70
2017,01,13,01,20,-3.80
2017,01,13,01,21,-3.80
2017,01,13,01,22,-3.80
2017,01,13,01,23,-3.80
2017,01,13,01,24,-3.80
2017,01,13,01,25,-3.80
2017,01,13,01,26,-3.70
2017,01,13,01,27,-3.70
2017,01,13,01,28,-3.70
2017,01,13,01,29,-3.70
2017,01,13,01,30,-3.70
2017,01,13,01,31,-3.70
2017,01,13,01,32,-3.70
2017,01,13,01,33,-3.70
2017,01,13,01,34,-3.80
2017,01,13,01,35,-3.80
2017,01,13,01,36,-3.80
2017,01,13,01,37,-3.80
2017,01,13,01,38,-3.90
2017,01,13,01,39,-3.90
2017,01,13,01,40,-4.00
2017,01,13,01,41,-4.10
2017,01,13,01,42,-4.10
2017,01,13,01,43,-4.20
2017,01,13,01,44,-4.20
2017,01,13,01,45,-4.30
2017,01,13,01,46,-4.30
2017,01,13,01,47,-4.30
2017,01,13,01,48,-4.30
2017,01,13,01,49,-4.30
2017,01,13,01,50,-4.30
2017,01,13,01,51,-4.30
2017,01,13,01,52,-4.30
2017,01,13,01,53,-4.30
2017,01,13,01,54,-4.20
2017,01,13,01,55,-4.20
2017,01,13,01,56,-4.20
2017,01,13,01,57,-4.20
2017,01,13,01,58,-4.20
2017,01,13,01,59,-4.20
2017,01,13,02,00,-4.20
2017,01,13,02,01,-4.20
2017,01,13,02,02,-4.20
2017,01,13,02,03,-4.10
2017,01,13,02,04,-4.10
2017,01,13,02,05,-4.10
2017,01,13,02,06,-4.10
2017,01,13,02,07,-4.10
2017,01,13,02,08,-4.10
2017,01,13,02,09,-4.20
2017,01,13,02,10,-4.20
2017,01,13,02,11,-4.20
2017,01,13,02,12,-4.20
2017,01,13,02,13,-4.20
2017,01,13,02,14,-4.30
2017,01,13,02,15,-4.30
2017,01,13,02,16,-4.30
2017,01,13,02,17,-4.30
2017,01,13,02,18,-4.20
2017,01,13,02,19,-4.20
2017,01,13,02,20,-4.20
2017,01,13,02,21,-4.20
2017,01,13,02,22,-4.10
2017,01,13,02,23,-4.10
2017,01,13,02,24,-4.10
2017,01,13,02,25,-4.10
2017,01,13,02,26,-4.10
2017,01,13,02,27,-4.10
2017,01,13,02,28,-4.10
2017,01,13,02,29,-4.10
2017,01,13,02,30,-4.10
2017,01,13,02,31,-4.10
2017,01,13,02,32,-4.10
2017,01,13,02,33,-4.10
2017,01,13,02,34,-4.10
2017,01,13,02,35,-4.10
2017,01,13,02,36,-4.10
2017,01,13,02,37,-4.10
2017,01,13,02,38,-4.10
2017,01,13,02,39,-4.10
2017,01,13,02,40,-4.10
2017,01,13,02,41,-4.10
2017,01,13,02,42,-4.20
2017,01,13,02,43,-4.20
2017,01,13,02,44,-4.20
2017,01,13,02,45,-4.20
2017,01,13,02,46,-4.20
2017,01,13,02,47,-4.20
2017,01,13,02,48,-4.20
2017,01,13,02,49,-4.20
2017,01,13,02,50,-4.20
2017,01,13,02,51,-4.20
2017,01,13,02,52,-4.20
2017,01,13,02,53,-4.30
2017,01,13,02,54,-4.30
2017,01,13,02,55,-4.30
2017,01,13,02,56,-4.40
2017,01,13,02,57,-4.40
2017,01,13,02,58,-4.50
2017,01,13,02,59,-4.50
2017,01,13,03,00,-4.50
2017,01,13,03,01,-4.50
2017,01,13,03,02,-4.50
2017,01,13,03,03,-4.50
2017,01,13,03,04,-4.40
2017,01,13,03,05,-4.40
2017,01,13,03,06,-4.40
2017,01,13,03,07,-4.30
2017,01,13,03,08,-4.30
2017,01,13,03,09,-4.30
2017,01,13,03,10,-4.30
2017,01,13,03,11,-4.30
2017,01,13,03,12,-4.20
2017,01,13,03,13,-4.20
2017,01,13,03,14,-4.20
2017,01,13,03,15,-4.20
2017,01,13,03,16,-4.20
2017,01,13,03,17,-4.10
2017,01,13,03,18,-4.10
2017,01,13,03,19,-4.00
2017,01,13,03,20,-4.00
2017,01,13,03,21,-4.00
2017,01,13,03,22,-3.90
2017,01,13,03,23,-3.90
2017,01,13,03,24,-3.80
2017,01,13,03,25,-3.80
2017,01,13,03,26,-3.80
2017,01,13,03,27,-3.80
2017,01,13,03,28,-3.80
2017,01,13,03,29,-3.80
2017,01,13,03,30,-3.70
2017,01,13,03,31,-3.70
2017,01,13,03,32,-3.70
2017,01,13,03,33,-3.70
2017,01,13,03,34,-3.70
2017,01,13,03,35,-3.60
2017,01,13,03,36,-3.60
2017,01,13,03,37,-3.60
2017,01,13,03,38,-3.60
2017,01,13,03,39,-3.50
2017,01,13,03,40,-3.50
2017,01,13,03,41,-3.50
2017,01,13,03,42,-3.50
2017,01,13,03,43,-3.40
2017,01,13,03,44,-3.40
2017,01,13,03,45,-3.40
2017,01,13,03,46,-3.30
2017,01,13,03,47,-3.30
2017,01,13,03,48,-3.30
2017,01,13,03,49,-3.30
2017,01,13,03,50,-3.20
2017,01,13,03,51,-3.20
2017,01,13,03,52,-3.20
2017,01,13,03,53,-3.20
2017,01,13,03,54,-3.20
2017,01,13,03,55,-3.20
2017,01,13,03,56,-3.20
2017,01,13,03,57,-3.20
2017,01,13,03,58,-3.20
2017,01,13,03,59,-3.20
2017,01,13,04,00,-3.10
2017,01,13,04,01,-3.10
2017,01,13,04,02,-3.10
2017,01,13,04,03,-3.10
2017,01,13,04,04,-3.10
2017,01,13,04,05,-3.10
2017,01,13,04,06,-3.10
2017,01,13,04,07,-3.10
2017,01,13,04,08,-3.10
2017,01,13,04,09,-3.20
2017,01,13,04,10,-3.20
2017,01,13,04,11,-3.10
2017,01,13,04,12,-3.10
2017,01,13,04,13,-3.10
2017,01,13,04,14,-3.10
2017,01,13,04,15,-3.10
2017,01,13,04,16,-3.10
2017,01,13,04,17,-3.10
2017,01,13,04,18,-3.10
2017,01,13,04,19,-3.10
2017,01,13,04,20,-3.00
2017,01,13,04,21,-3.00
2017,01,13,04,22,-3.00
2017,01,13,04,23,-3.00
2017,01,13,04,24,-3.00
2017,01,13,04,25,-3.00
2017,01,13,04,26,-3.10
2017,01,13,04,27,-3.10
2017,01,13,04,28,-3.10
2017,01,13,04,29,-3.10
2017,01,13,04,30,-3.10
2017,01,13,04,31,-3.10
2017,01,13,04,32,-3.10
2017,01,13,04,33,-3.10
2017,01,13,04,34,-3.10
2017,01,13,04,35,-3.00
2017,01,13,04,36,-3.00
2017,01,13,04,37,-3.00
2017,01,13,04,38,-2.90
2017,01,13,04,39,-2.90
2017,01,13,04,40,-2.90
2017,01,13,04,41,-2.90
2017,01,13,04,42,-2.90
2017,01,13,04,43,-2.90
2017,01,13,04,44,-2.90
2017,01,13,04,45,-2.90
2017,01,13,04,46,-2.90
2017,01,13,04,47,-2.90
2017,01,13,04,48,-2.90
2017,01,13,04,49,-2.90
2017,01,13,04,50,-2.80
2017,01,13,04,51,-2.80
2017,01,13,04,52,-2.80
2017,01,13,04,53,-2.80
2017,01,13,04,54,-2.90
2017,01,13,04,55,-2.90
2017,01,13,04,56,-3.00
2017,01,13,04,57,-3.00
2017,01,13,04,58,-3.10
2017,01,13,04,59,-3.10
2017,01,13,05,00,-3.20
2017,01,13,05,01,-3.20
2017,01,13,05,02,-3.20
2017,01,13,05,03,-3.20
2017,01,13,05,04,-3.20
2017,01,13,05,05,-3.20
2017,01,13,05,06,-3.20
2017,01,13,05,07,-3.20
2017,01,13,05,08,-3.20
2017,01,13,05,09,-3.20
2017,01,13,05,10,-3.20
2017,01,13,05,11,-3.20
2017,01,13,05,12,-3.20
2017,01,13,05,13,-3.20
2017,01,13,05,14,-3.20
2017,01,13,05,15,-3.10
2017,01,13,05,16,-3.10
2017,01,13,05,17,-3.10
2017,01,13,05,18,-3.10
2017,01,13,05,19,-3.10
2017,01,13,05,20,-3.10
2017,01,13,05,21,-3.10
2017,01,13,05,22,-3.10
2017,01,13,05,23,-3.10
2017,01,13,05,24,-3.10
2017,01,13,05,25,-3.10
2017,01,13,05,26,-3.10
2017,01,13,05,27,-3.00
2017,01,13,05,28,-3.00
2017,01,13,05,29,-3.00
2017,01,13,05,30,-2.90
2017,01,13,05,31,-2.90
2017,01,13,05,32,-2.90
2017,01,13,05,33,-2.90
2017,01,13,05,34,-2.90
2017,01,13,05,35,-2.90
2017,01,13,05,36,-2.90
2017,01,13,05,37,-2.90
2017,01,13,05,38,-2.90
2017,01,13,05,39,-2.90
2017,01,13,05,40,-2.90
2017,01,13,05,41,-2.90
2017,01,13,05,42,-2.90
2017,01,13,05,43,-3.00
2017,01,13,05,44,-2.90
2017,01,13,05,45,-3.00
2017,01,13,05,46,-3.00
2017,01,13,05,47,-3.00
2017,01,13,05,48,-3.00
2017,01,13,05,49,-3.00
2017,01,13,05,50,-3.00
2017,01,13,05,51,-3.00
2017,01,13,05,52,-3.00
2017,01,13,05,53,-3.00
2017,01,13,05,54,-3.00
2017,01,13,05,55,-3.00
2017,01,13,05,56,-3.00
2017,01,13,05,57,-3.00
2017,01,13,05,58,-3.00
2017,01,13,05,59,-3.00
2017,01,13,06,00,-3.10
2017,01,13,06,01,-3.10
2017,01,13,06,02,-3.10
2017,01,13,06,03,-3.10
2017,01,13,06,04,-3.10
2017,01,13,06,05,-3.10
2017,01,13,06,06,-3.20
2017,01,13,06,07,-3.20
2017,01,13,06,08,-3.30
2017,01,13,06,09,-3.30
2017,01,13,06,10,-3.30
2017,01,13,06,11,-3.40
2017,01,13,06,12,-3.40
2017,01,13,06,13,-3.40
2017,01,13,06,14,-3.40
2017,01,13,06,15,-3.50
2017,01,13,06,16,-3.50
2017,01,13,06,17,-3.50
2017,01,13,06,18,-3.50
2017,01,13,06,19,-3.50
2017,01,13,06,20,-3.50
2017,01,13,06,21,-3.50
2017,01,13,06,22,-3.50
2017,01,13,06,23,-3.50
2017,01,13,06,24,-3.50
2017,01,13,06,25,-3.50
2017,01,13,08,25,-3.50
2017,01,13,08,26,-3.40
2017,01,13,08,27,-3.40
2017,01,13,08,28,-3.40
2017,01,13,08,29,-3.40
2017,01,13,08,30,-3.40
2017,01,13,08,31,-3.30
2017,01,13,08,32,-3.30
2017,01,13,08,33,-3.30
2017,01,13,08,34,-3.20
2017,01,13,08,35,-3.20
2017,01,13,08,36,-3.20
2017,01,13,08,37,-3.20
2017,01,13,08,38,-3.20
2017,01,13,08,39,-3.20
2017,01,13,08,40,-3.20
2017,01,13,08,41,-3.10
2017,01,13,08,42,-3.10
2017,01,13,08,43,-3.10
2017,01,13,08,44,-3.10
2017,01,13,08,45,-3.10
2017,01,13,08,46,-3.10
2017,01,13,08,47,-3.10
2017,01,13,08,48,-3.10
2017,01,13,08,49,-3.10
2017,01,13,08,50,-3.10
2017,01,13,08,51,-3.10
2017,01,13,08,52,-3.10
2017,01,13,08,53,-3.00
2017,01,13,08,54,-3.00
2017,01,13,08,55,-3.00
2017,01,13,08,56,-3.00
2017,01,13,08,57,-3.00
2017,01,13,08,58,-3.00
2017,01,13,08,59,-2.90
2017,01,13,09,00,-2.90
2017,01,13,09,01,-2.80
2017,01,13,09,02,-2.80
2017,01,13,09,03,-2.80
2017,01,13,09,04,-2.70
2017,01,13,09,05,-2.70
2017,01,13,09,06,-2.60
2017,01,13,09,07,-2.50
2017,01,13,09,08,-2.50
2017,01,13,09,09,-2.40
2017,01,13,09,10,-2.30
2017,01,13,09,11,-2.20
2017,01,13,09,12,-2.20
2017,01,13,09,13,-2.10
2017,01,13,09,14,-2.10
2017,01,13,09,15,-2.10
2017,01,13,09,16,-2.10
2017,01,13,09,17,-2.00
2017,01,13,09,18,-2.00
2017,01,13,09,19,-2.00
2017,01,13,09,20,-1.90
2017,01,13,09,21,-1.90
2017,01,13,09,22,-1.90
2017,01,13,09,23,-1.90
2017,01,13,09,24,-1.90
2017,01,13,09,25,-1.80
2017,01,13,09,26,-1.80
2017,01,13,09,27,-1.80
2017,01,13,09,28,-1.80
2017,01,13,09,29,-1.80
2017,01,13,09,30,-1.80
2017,01,13,09,31,-1.80
2017,01,13,09,32,-1.70
2017,01,13,09,33,-1.70
2017,01,13,09,34,-1.70
2017,01,13,09,35,-1.60
2017,01,13,09,36,-1.60
2017,01,13,09,37,-1.60
2017,01,13,09,38,-1.60
2017,01,13,09,39,-1.60
2017,01,13,09,40,-1.50
2017,01,13,09,41,-1.50
2017,01,13,09,42,-1.50
2017,01,13,09,43,-1.40
2017,01,13,09,44,-1.40
2017,01,13,09,45,-1.40
2017,01,13,09,46,-1.40
2017,01,13,09,47,-1.30
2017,01,13,09,48,-1.30
2017,01,13,09,49,-1.30
2017,01,13,09,50,-1.30
2017,01,13,09,51,-1.30
2017,01,13,09,52,-1.20
2017,01,13,09,53,-1.20
2017,01,13,09,54,-1.10
2017,01,13,09,55,-1.10
2017,01,13,09,56,-1.00
2017,01,13,09,57,-1.00
2017,01,13,09,58,-0.90
2017,01,13,09,59,-0.90
2017,01,13,10,00,-0.80
2017,01,13,10,01,-0.80
2017,01,13,10,02,-0.70
2017,01,13,10,03,-0.70
2017,01,13,10,04,-0.60
2017,01,13,10,05,-0.50
2017,01,13,10,06,-0.40
2017,01,13,10,07,-0.40
2017,01,13,10,08,-0.30
2017,01,13,10,09,-0.30
2017,01,13,10,10,-0.20
2017,01,13,10,11,-0.20
2017,01,13,10,12,-0.20
2017,01,13,10,13,-0.20
2017,01,13,10,14,-0.10
2017,01,13,10,15,-0.10
2017,01,13,10,16,-0.10
2017,01,13,10,17,-0.10
2017,01,13,10,18,-0.10
2017,01,13,10,19,-0.10
2017,01,13,10,20,0.00
2017,01,13,10,21,0.00
2017,01,13,10,22,0.00
2017,01,13,10,23,0.10
2017,01,13,10,24,0.10
2017,01,13,10,25,0.10
2017,01,13,10,26,0.20
2017,01,13,10,27,0.20
2017,01,13,10,28,0.20
2017,01,13,10,29,0.20
2017,01,13,10,30,0.20
2017,01,13,10,31,0.30
2017,01,13,10,32,0.30
2017,01,13,10,33,0.30
2017,01,13,10,34,0.30
2017,01,13,10,35,0.30
2017,01,13,10,36,0.40
2017,01,13,10,37,0.40
2017,01,13,10,38,0.40
2017,01,13,10,39,0.40
2017,01,13,10,40,0.50
2017,01,13,10,41,0.50
2017,01,13,10,42,0.60
2017,01,13,10,43,0.60
2017,01,13,10,44,0.60
2017,01,13,10,45,0.60
2017,01,13,10,46,0.60
2017,01,13,10,47,0.60
2017,01,13,10,48,0.70
2017,01,13,10,49,0.70
2017,01,13,10,50,0.70
2017,01,13,10,51,0.70
2017,01,13,10,52,0.70
2017,01,13,10,53,0.70
2017,01,13,10,54,0.70
2017,01,13,10,55,0.70
2017,01,13,10,56,0.70
2017,01,13,10,57,0.70
2017,01,13,10,58,0.70
2017,01,13,10,59,0.80
2017,01,13,11,00,0.80
2017,01,13,11,01,0.80
2017,01,13,11,02,0.80
2017,01,13,11,03,0.80
2017,01,13,11,04,0.80
2017,01,13,11,05,0.80
2017,01,13,11,06,0.80
2017,01,13,11,07,0.80
2017,01,13,11,08,0.80
2017,01,13,11,09,0.80
2017,01,13,11,10,0.90
2017,01,13,11,11,0.90
2017,01,13,11,12,0.90
2017,01,13,11,13,0.90
2017,01,13,11,14,0.90
2017,01,13,11,15,0.90
2017,01,13,11,16,0.90
2017,01,13,11,17,0.90
2017,01,13,11,18,0.90
2017,01,13,11,19,0.90
2017,01,13,11,20,0.90
2017,01,13,11,21,0.90
2017,01,13,11,22,0.90
2017,01,13,11,23,0.90
2017,01,13,11,24,0.90
2017,01,13,11,25,0.90
2017,01,13,11,26,0.90
2017,01,13,11,27,0.90
2017,01,13,11,28,0.90
2017,01,13,11,29,0.90
2017,01,13,11,30,0.90
2017,01,13,11,31,0.90
2017,01,13,11,32,0.90
2017,01,13,11,33,0.90
2017,01,13,11,34,0.90
2017,01,13,11,35,1.00
2017,01,13,11,36,1.00
2017,01,13,11,37,1.00
2017,01,13,11,38,1.10
2017,01,13,11,39,1.10
2017,01,13,11,40,1.10
2017,01,13,11,41,1.10
2017,01,13,11,42,1.10
2017,01,13,11,43,1.10
2017,01,13,11,44,1.20
2017,01,13,11,45,1.20
2017,01,13,11,46,1.20
2017,01,13,11,47,1.20
2017,01,13,11,48,1.20
2017,01,13,11,49,1.20
2017,01,13,11,50,1.20
2017,01,13,11,51,1.30
2017,01,13,11,52,1.30
2017,01,13,11,53,1.30
2017,01,13,11,54,1.30
2017,01,13,11,55,1.30
2017,01,13,11,56,1.30
2017,01,13,11,57,1.20
2017,01,13,11,58,1.20
2017,01,13,11,59,1.20
2017,01,13,12,00,1.30
2017,01,13,12,01,1.30
2017,01,13,12,02,1.30
2017,01,13,12,03,1.30
2017,01,13,12,04,1.30
2017,01,13,12,05,1.30
2017,01,13,12,06,1.30
2017,01,13,12,07,1.30
2017,01,13,12,08,1.40
2017,01,13,12,09,1.30
2017,01,13,12,10,1.30
2017,01,13,12,11,1.30
2017,01,13,12,12,1.40
2017,01,13,12,13,1.40
2017,01,13,12,14,1.40
2017,01,13,12,15,1.40
2017,01,13,12,16,1.40
2017,01,13,12,17,1.40
2017,01,13,12,18,1.40
2017,01,13,12,19,1.40
2017,01,13,12,20,1.40
2017,01,13,12,21,1.50
2017,01,13,12,22,1.50
2017,01,13,12,23,1.50
2017,01,13,12,24,1.50
2017,01,13,12,25,1.50
2017,01,13,12,26,1.50
2017,01,13,12,27,1.50
2017,01,13,12,28,1.50
2017,01,13,12,29,1.50
2017,01,13,12,30,1.50
2017,01,13,12,31,1.40
2017,01,13,12,32,1.40
2017,01,13,12,33,1.40
2017,01,13,12,34,1.40
2017,01,13,12,35,1.40
2017,01,13,12,36,1.40
2017,01,13,12,37,1.40
2017,01,13,12,38,1.40
2017,01,13,12,39,1.40
2017,01,13,12,40,1.40
2017,01,13,12,41,1.50
2017,01,13,12,42,1.50
2017,01,13,12,43,1.50
2017,01,13,12,44,1.50
2017,01,13,12,45,1.50
2017,01,13,12,46,1.50
2017,01,13,12,47,1.50
2017,01,13,12,48,1.50
2017,01,13,12,49,1.60
2017,01,13,12,50,1.60
2017,01,13,12,51,1.60
2017,01,13,12,52,1.60
2017,01,13,12,53,1.60
2017,01,13,12,54,1.60
2017,01,13,12,55,1.70
2017,01,13,12,56,1.70
2017,01,13,12,57,1.70
2017,01,13,12,58,1.70
2017,01,13,12,59,1.60
2017,01,13,13,00,1.60
2017,01,13,13,01,1.60
2017,01,13,13,02,1.70
2017,01,13,13,03,1.70
2017,01,13,13,04,1.70
2017,01,13,13,05,1.70
2017,01,13,13,06,1.80
2017,01,13,13,07,1.80
2017,01,13,13,08,1.80
2017,01,13,13,09,1.80
2017,01,13,13,10,1.80
2017,01,13,13,11,1.80
2017,01,13,13,12,1.80
2017,01,13,13,13,1.80
2017,01,13,13,14,1.80
2017,01,13,13,15,1.80
2017,01,13,13,16,1.80
2017,01,13,13,17,1.80
2017,01,13,13,18,1.80
2017,01,13,13,19,1.80
2017,01,13,13,20,1.70
2017,01,13,13,21,1.70
2017,01,13,13,22,1.70
2017,01,13,13,23,1.60
2017,01,13,13,24,1.60
2017,01,13,13,25,1.60
2017,01,13,13,26,1.60
2017,01,13,13,27,1.50
2017,01,13,13,28,1.50
2017,01,13,13,29,1.50
2017,01,13,13,30,1.60
2017,01,13,13,31,1.60
2017,01,13,13,32,1.60
2017,01,13,13,33,1.60
2017,01,13,13,34,1.60
2017,01,13,13,35,1.60
2017,01,13,13,36,1.70
2017,01,13,13,37,1.70
2017,01,13,13,38,1.70
2017,01,13,13,39,1.70
2017,01,13,13,40,1.70
2017,01,13,13,41,1.70
2017,01,13,13,42,1.70
2017,01,13,13,43,1.70
2017,01,13,13,44,1.70
2017,01,13,13,45,1.70
2017,01,13,13,46,1.70
2017,01,13,13,47,1.70
2017,01,13,13,48,1.70
2017,01,13,13,49,1.70
2017,01,13,13,50,1.70
2017,01,13,13,51,1.70
2017,01,13,13,52,1.70
2017,01,13,13,53,1.70
2017,01,13,13,54,1.70
2017,01,13,13,55,1.70
2017,01,13,13,56,1.70
2017,01,13,13,57,1.70
2017,01,13,13,58,1.70
2017,01,13,13,59,1.70
2017,01,13,14,00,1.70
2017,01,13,14,01,1.70
2017,01,13,14,02,1.70
2017,01,13,14,03,1.70
2017,01,13,14,04,1.80
2017,01,13,14,05,1.80
2017,01,13,14,06,1.80
2017,01,13,14,07,1.80
2017,01,13,14,08,1.80
2017,01,13,14,09,1.80
2017,01,13,14,10,1.80
2017,01,13,14,11,1.80
2017,01,13,14,12,1.80
2017,01,13,14,13,1.80
2017,01,13,14,14,1.80
2017,01,13,14,15,1.80
2017,01,13,14,16,1.80
2017,01,13,14,17,1.70
2017,01,13,14,18,1.70
2017,01,13,14,19,1.80
2017,01,13,14,20,1.80
2017,01,13,14,21,1.80
2017,01,13,14,22,1.80
2017,01,13,14,23,1.80
2017,01,13,14,24,1.80
2017,01,13,14,25,1.80
2017,01,13,14,26,1.80
2017,01,13,14,27,1.80
2017,01,13,14,28,1.90
2017,01,13,14,29,1.90
2017,01,13,14,30,1.90
2017,01,13,14,31,1.90
2017,01,13,14,32,1.90
2017,01,13,14,33,1.90
2017,01,13,14,34,1.90
2017,01,13,14,35,1.90
2017,01,13,14,36,1.90
2017,01,13,14,37,1.90
2017,01,13,14,38,1.90
2017,01,13,14,39,1.90
2017,01,13,14,40,1.90
2017,01,13,14,41,1.90
2017,01,13,14,42,1.90
2017,01,13,14,43,1.90
2017,01,13,14,44,1.80
2017,01,13,14,45,1.80
2017,01,13,14,46,1.80
2017,01,13,14,47,1.80
2017,01,13,14,48,1.80
2017,01,13,14,49,1.80
2017,01,13,14,50,1.80
2017,01,13,14,51,1.80
2017,01,13,14,52,1.70
2017,01,13,14,53,1.70
2017,01,13,14,54,1.70
2017,01,13,14,55,1.70
2017,01,13,14,56,1.70
2017,01,13,14,57,1.70
2017,01,13,14,58,1.70
2017,01,13,14,59,1.70
2017,01,13,15,00,1.70
2017,01,13,15,01,1.70
2017,01,13,15,02,1.70
2017,01,13,15,03,1.70
2017,01,13,15,04,1.70
2017,01,13,15,05,1.80
2017,01,13,15,06,1.80
2017,01,13,15,07,1.80
2017,01,13,15,08,1.80
2017,01,13,15,09,1.80
2017,01,13,15,10,1.80
2017,01,13,15,11,1.80
2017,01,13,15,12,1.80
2017,01,13,15,13,1.80
2017,01,13,15,14,1.70
2017,01,13,15,15,1.70
2017,01,13,15,16,1.70
2017,01,13,15,17,1.70
2017,01,13,15,18,1.70
2017,01,13,15,19,1.70
2017,01,13,15,20,1.70
2017,01,13,15,21,1.70
2017,01,13,15,22,1.70
2017,01,13,15,23,1.70
2017,01,13,15,24,1.70
2017,01,13,15,25,1.70
2017,01,13,15,26,1.70
2017,01,13,15,27,1.80
2017,01,13,15,28,1.80
2017,01,13,15,29,1.80
2017,01,13,15,30,1.80
2017,01,13,15,31,1.80
2017,01,13,15,32,1.80
2017,01,13,15,33,1.80
2017,01,13,15,34,1.80
2017,01,13,15,35,1.80
2017,01,13,15,36,1.80
2017,01,13,15,37,1.70
2017,01,13,15,38,1.70
2017,01,13,15,39,1.70
2017,01,13,15,40,1.70
2017,01,13,15,41,1.70
2017,01,13,15,42,1.70
2017,01,13,15,43,1.70
2017,01,13,15,44,1.70
2017,01,13,15,45,1.70
2017,01,13,15,46,1.70
2017,01,13,15,47,1.70
2017,01,13,15,48,1.70
2017,01,13,15,49,1.70
2017,01,13,15,50,1.70
2017,01,13,15,51,1.70
2017,01,13,15,52,1.70
2017,01,13,15,53,1.70
2017,01,13,15,54,1.70
2017,01,13,15,55,1.60
2017,01,13,15,56,1.60
2017,01,13,15,57,1.60
2017,01,13,15,58,1.60
2017,01,13,15,59,1.60
2017,01,13,16,00,1.60
2017,01,13,16,01,1.60
2017,01,13,16,02,1.50
2017,01,13,16,03,1.50
2017,01,13,16,04,1.50
2017,01,13,16,05,1.50
2017,01,13,16,06,1.40
2017,01,13,16,07,1.40
2017,01,13,16,08,1.40
2017,01,13,16,09,1.40
2017,01,13,16,10,1.40
2017,01,13,16,11,1.40
2017,01,13,16,12,1.40
2017,01,13,16,13,1.40
2017,01,13,16,14,1.40
2017,01,13,16,15,1.30
2017,01,13,16,16,1.30
2017,01,13,16,17,1.30
2017,01,13,16,18,1.30
2017,01,13,16,19,1.30
2017,01,13,16,20,1.30
2017,01,13,16,21,1.30
2017,01,13,16,22,1.30
2017,01,13,16,23,1.30
2017,01,13,16,24,1.20
2017,01,13,16,25,1.20
2017,01,13,16,26,1.20
2017,01,13,16,27,1.20
2017,01,13,16,28,1.20
2017,01,13,16,29,1.20
2017,01,13,16,30,1.20
2017,01,13,16,31,1.20
2017,01,13,16,32,1.20
2017,01,13,16,33,1.20
2017,01,13,16,34,1.20
2017,01,13,16,35,1.20
2017,01,13,16,36,1.10
2017,01,13,16,37,1.10
2017,01,13,16,38,1.10
2017,01,13,16,39,1.10
2017,01,13,16,40,1.10
2017,01,13,16,41,1.10
2017,01,13,16,42,1.10
2017,01,13,16,43,1.10
2017,01,13,16,44,1.10
2017,01,13,16,45,1.10
2017,01,13,16,46,1.10
2017,01,13,16,47,1.10
2017,01,13,16,48,1.10
2017,01,13,16,49,1.10
2017,01,13,16,50,1.10
2017,01,13,16,51,1.10
2017,01,13,16,52,1.10
2017,01,13,16,53,1.10
2017,01,13,16,54,1.10
2017,01,13,16,55,1.10
2017,01,13,16,56,1.10
2017,01,13,16,57,1.10
2017,01,13,16,58,1.10
2017,01,13,16,59,1.10
2017,01,13,17,00,1.10
2017,01,13,17,01,1.10
2017,01,13,17,02,1.10
2017,01,13,17,03,1.10
2017,01,13,17,04,1.10
2017,01,13,17,05,1.10
2017,01,13,17,06,1.10
2017,01,13,17,07,1.10
2017,01,13,17,08,1.10
2017,01,13,17,09,1.10
2017,01,13,17,10,1.10
2017,01,13,17,11,1.10
2017,01,13,17,12,1.10
2017,01,13,17,13,1.10
2017,01,13,17,14,1.10
2017,01,13,17,15,1.10
2017,01,13,17,16,1.10
2017,01,13,17,17,1.10
2017,01,13,17,18,1.10
2017,01,13,17,19,1.10
2017,01,13,17,20,1.10
2017,01,13,17,21,1.10
2017,01,13,17,22,1.00
2017,01,13,17,23,1.00
2017,01,13,17,24,1.00
2017,01,13,17,25,1.00
2017,01,13,17,26,1.00
2017,01,13,17,27,1.00
2017,01,13,17,28,1.00
2017,01,13,17,29,1.00
2017,01,13,17,30,0.90
2017,01,13,17,31,0.90
2017,01,13,17,32,0.90
2017,01,13,17,33,0.90
2017,01,13,17,34,0.90
2017,01,13,17,35,0.90
2017,01,13,17,36,0.90
2017,01,13,17,37,0.90
2017,01,13,17,38,0.90
2017,01,13,17,39,0.90
2017,01,13,17,40,0.80
2017,01,13,17,41,0.80
2017,01,13,17,42,0.80
2017,01,13,17,43,0.80
2017,01,13,17,44,0.80
2017,01,13,17,45,0.80
2017,01,13,17,46,0.80
2017,01,13,17,47,0.80
2017,01,13,17,48,0.80
2017,01,13,17,49,0.80
2017,01,13,17,50,0.80
2017,01,13,17,51,0.80
2017,01,13,17,52,0.80
2017,01,13,17,53,0.80
2017,01,13,17,54,0.80
2017,01,13,17,55,0.80
2017,01,13,17,56,0.80
2017,01,13,17,57,0.80
2017,01,13,17,58,0.80
2017,01,13,17,59,0.70
2017,01,13,18,00,0.70
2017,01,13,18,01,0.70
2017,01,13,18,02,0.70
2017,01,13,18,03,0.70
2017,01,13,18,04,0.70
2017,01,13,18,05,0.70
2017,01,13,18,06,0.70
2017,01,13,18,07,0.70
2017,01,13,18,08,0.70
2017,01,13,18,09,0.70
2017,01,13,18,10,0.70
2017,01,13,18,11,0.70
2017,01,13,18,12,0.70
2017,01,13,18,13,0.70
2017,01,13,18,14,0.70
2017,01,13,18,15,0.70
2017,01,13,18,16,0.70
2017,01,13,18,17,0.70
2017,01,13,18,18,0.70
2017,01,13,18,19,0.70
2017,01,13,18,20,0.70
2017,01,13,18,21,0.70
2017,01,13,18,22,0.70
2017,01,13,18,23,0.70
2017,01,13,18,24,0.70
2017,01,13,18,25,0.70
2017,01,13,18,26,0.70
2017,01,13,18,27,0.70
2017,01,13,18,28,0.70
2017,01,13,18,29,0.70
2017,01,13,18,30,0.70
2017,01,13,18,31,0.70
2017,01,13,18,32,0.70
2017,01,13,18,33,0.70
2017,01,13,18,34,0.60
2017,01,13,18,35,0.70
2017,01,13,18,36,0.60
2017,01,13,18,37,0.70
2017,01,13,18,38,0.70
2017,01,13,18,39,0.70
2017,01,13,18,40,0.70
2017,01,13,18,41,0.70
2017,01,13,18,42,0.70
2017,01,13,18,43,0.70
2017,01,13,18,44,0.70
2017,01,13,18,45,0.70
2017,01,13,18,46,0.70
2017,01,13,18,47,0.70
2017,01,13,18,48,0.70
2017,01,13,18,49,0.70
2017,01,13,18,50,0.70
2017,01,13,18,51,0.70
2017,01,13,18,52,0.60
2017,01,13,18,53,0.60
2017,01,13,18,54,0.60
2017,01,13,18,55,0.60
2017,01,13,18,56,0.60
2017,01,13,18,57,0.60
2017,01,13,18,58,0.60
2017,01,13,18,59,0.60
2017,01,13,19,00,0.60
2017,01,13,19,01,0.60
2017,01,13,19,02,0.60
2017,01,13,19,03,0.60
2017,01,13,19,04,0.60
2017,01,13,19,05,0.60
2017,01,13,19,06,0.60
2017,01,13,19,07,0.60
2017,01,13,19,08,0.60
2017,01,13,19,09,0.60
2017,01,13,19,10,0.60
2017,01,13,19,11,0.60
2017,01,13,19,12,0.70
2017,01,13,19,13,0.70
2017,01,13,19,14,0.70
2017,01,13,19,15,0.70
2017,01,13,19,16,0.70
2017,01,13,19,17,0.70
2017,01,13,19,18,0.70
2017,01,13,19,19,0.70
2017,01,13,19,20,0.70
2017,01,13,19,21,0.70
2017,01,13,19,22,0.70
2017,01,13,19,23,0.70
2017,01,13,19,24,0.70
2017,01,13,19,25,0.70
2017,01,13,19,26,0.70
2017,01,13,19,27,0.70
2017,01,13,19,28,0.70
2017,01,13,19,29,0.70
2017,01,13,19,30,0.70
2017,01,13,19,31,0.70
2017,01,13,19,32,0.70
2017,01,13,19,33,0.70
2017,01,13,19,34,0.70
2017,01,13,19,35,0.70
2017,01,13,19,36,0.80
2017,01,13,19,37,0.80
2017,01,13,19,38,0.80
2017,01,13,19,39,0.80
2017,01,13,19,40,0.80
2017,01,13,19,41,0.80
2017,01,13,19,42,0.80